カタログに戻る

INTELSAT 901

運用中通信GEO
NORAD 26824·PAYLOAD· XX

打ち上げ Jun 9, 2001 から Guiana Space Centre

Loading…

TLE

最新Source: Space-Track

元期: Sep 14, 2026, 20:59 UTC

1 26824U 01024A   26257.87433387  .00000053  00000-0  00000-0 0  9992
2 26824   1.4878  83.3313 0003601  34.0143 262.3396  0.98816929 23804

AllMySatでINTELSAT 901をリアルタイム追跡

Download on the App Store